[Date Prev][Date Next][Thread Prev][Thread Next] - [Date Index][Thread Index][Author Index]

2 Line ISS Keps 11-6



ISS
1 25544U 98067A   05308.85067256  .00021626  00000-0  14887-3 0  6877
2 25544 051.6440 259.9988 0001980 107.5762 295.1293 15.74572912397821
----
Via the sarex mailing list at AMSAT.ORG courtesy of AMSAT-NA.
To unsubscribe, send "unsubscribe sarex" to Majordomo@amsat.org



AMSAT Top AMSAT Home